BEIDOU 17

Last updated on Jan. 15, 2021, 6:31 a.m. UTC

1 40549U 15019A   21014.92671758 -.00000172  00000-0  00000-0 0  9992
2 40549  52.7387 318.7643 0037012 189.8001  31.7055  1.00298741 21239
UTC
Height (km)
Latitude
Longitude
Inclination
Orbital Period
UTC large
Height (km)
Speed (km/s)
/
Latitude / Longitude
Inclination (degrees)
Orbital Period (minutes)
Azimuth
Elevation
Range (km)
Doppler Factor
iOS Compass Heading
iOS Angle

Next 30 passes for location: Hong Kong

Rise time Rise Azimuth (degrees) Set time Set Azimuth (degrees) Duration Max altitude (degrees)

No matching passes for this satellites